GORIZONT 2 [-]

Last updated on Jan. 25, 2020, 4:43 a.m. UTC

1 11440U 79062A   20024.06468764 -.00000044  00000-0  00000+0 0  9991
2 11440  11.1977 312.2818 0005465 330.8393 294.4723  1.00237788114588
UTC
Height (km)
Latitude
Longitude
Inclination
Orbital Period
UTC large
Height (km)
Speed (km/s)
/
Latitude / Longitude
Inclination (degrees)
Orbital Period (minutes)
Azimuth
Elevation
Range (km)
Doppler Factor
iOS Compass Heading
iOS Angle

Next 30 passes for location: Hong Kong

Rise time Rise Azimuth (degrees) Set time Set Azimuth (degrees) Duration Max altitude (degrees)

No matching passes for this satellites